owner,sensor,date,latitude,longitude,vertical_datum,sea_water_practical_salinity,qcFlag 
DISL,ioos:station:DISL:MHPA:1,2009-05-01T00:00:00Z,30.6671,-87.9365,4.652,0.09,1111122 
DISL,ioos:station:DISL:MHPA:1,2009-05-01T00:30:00Z,30.6671,-87.9365,4.549,0.09,1111122 
DISL,ioos:station:DISL:MHPA:1,2009-05-01T01:00:00Z,30.6671,-87.9365,4.436,0.09,1111122 
DISL,ioos:station:DISL:MHPA:1,2009-05-01T01:30:00Z,30.6671,-87.9365,4.281,0.09,1111122 
DISL,ioos:station:DISL:MHPA:1,2009-05-01T02:00:00Z,30.6671,-87.9365,4.125,0.09,1111122 
DISL,ioos:station:DISL:MHPA:1,2009-05-01T02:30:00Z,30.6671,-87.9365,3.99,0.09,1111122 
DISL,ioos:station:DISL:MHPA:1,2009-05-01T03:00:00Z,30.6671,-87.9365,3.887,0.09,1111122 
DISL,ioos:station:DISL:MHPA:1,2009-05-01T03:30:00Z,30.6671,-87.9365,3.802,0.09,1111122 
DISL,ioos:station:DISL:MHPA:1,2009-05-01T04:00:00Z,30.6671,-87.9365,3.689,0.09,1111122 
DISL,ioos:station:DISL:MHPA:1,2009-05-01T04:30:00Z,30.6671,-87.9365,3.569,0.09,1111122 
DISL,ioos:station:DISL:MHPA:1,2009-05-01T05:00:00Z,30.6671,-87.9365,3.472,0.1,1111122 
DISL,ioos:station:DISL:MHPA:1,2009-05-01T05:30:00Z,30.6671,-87.9365,3.404,0.1,1111122 
DISL,ioos:station:DISL:MHPA:1,2009-05-01T06:00:00Z,30.6671,-87.9365,3.328,0.1,1111122 
DISL,ioos:station:DISL:MHPA:1,2009-05-01T06:30:00Z,30.6671,-87.9365,3.271,0.1,1111122 
DISL,ioos:station:DISL:MHPA:1,2009-05-01T07:00:00Z,30.6671,-87.9365,3.227,0.1,1111122 
DISL,ioos:station:DISL:MHPA:1,2009-05-01T07:30:00Z,30.6671,-87.9365,3.197,0.1,1111122 
DISL,ioos:station:DISL:MHPA:1,2009-05-01T08:00:00Z,30.6671,-87.9365,3.167,0.1,1111122 
DISL,ioos:station:DISL:MHPA:1,2009-05-01T08:30:00Z,30.6671,-87.9365,3.169,0.1,1111122 
DISL,ioos:station:DISL:MHPA:1,2009-05-01T09:00:00Z,30.6671,-87.9365,3.166,0.1,1111122 
DISL,ioos:station:DISL:MHPA:1,2009-05-01T09:30:00Z,30.6671,-87.9365,3.175,0.1,1111122 
DISL,ioos:station:DISL:MHPA:1,2009-05-01T10:00:00Z,30.6671,-87.9365,3.183,0.1,1111122 
DISL,ioos:station:DISL:MHPA:1,2009-05-01T10:30:00Z,30.6671,-87.9365,3.179,0.1,1111122 
DISL,ioos:station:DISL:MHPA:1,2009-05-01T11:00:00Z,30.6671,-87.9365,3.213,0.1,1111122 
DISL,ioos:station:DISL:MHPA:1,2009-05-01T11:30:00Z,30.6671,-87.9365,3.256,0.1,1111122 
DISL,ioos:station:DISL:MHPA:1,2009-05-01T12:00:00Z,30.6671,-87.9365,3.44,0.1,1111122 
DISL,ioos:station:DISL:MHPA:1,2009-05-01T12:30:00Z,30.6671,-87.9365,3.453,0.1,1111122 
DISL,ioos:station:DISL:MHPA:1,2009-05-01T13:00:00Z,30.6671,-87.9365,3.521,0.1,1111122 
DISL,ioos:station:DISL:MHPA:1,2009-05-01T13:30:00Z,30.6671,-87.9365,3.569,0.09,1111122 
DISL,ioos:station:DISL:MHPA:1,2009-05-01T14:00:00Z,30.6671,-87.9365,3.686,0.09,1111122 
DISL,ioos:station:DISL:MHPA:1,2009-05-01T14:30:00Z,30.6671,-87.9365,3.76,0.1,1111122 
DISL,ioos:station:DISL:MHPA:1,2009-05-01T15:00:00Z,30.6671,-87.9365,3.804,0.1,1111122 
DISL,ioos:station:DISL:MHPA:1,2009-05-01T15:30:00Z,30.6671,-87.9365,3.959,0.1,1111122 
DISL,ioos:station:DISL:MHPA:1,2009-05-01T16:00:00Z,30.6671,-87.9365,4.021,0.1,1111122 
DISL,ioos:station:DISL:MHPA:1,2009-05-01T16:30:00Z,30.6671,-87.9365,4.069,0.1,1111122 
DISL,ioos:station:DISL:MHPA:1,2009-05-01T17:00:00Z,30.6671,-87.9365,4.169,0.1,1111122 
DISL,ioos:station:DISL:MHPA:1,2009-05-01T17:30:00Z,30.6671,-87.9365,4.264,0.1,1111122 
DISL,ioos:station:DISL:MHPA:1,2009-05-01T18:00:00Z,30.6671,-87.9365,4.336,0.1,1111122 
DISL,ioos:station:DISL:MHPA:1,2009-05-01T18:30:00Z,30.6671,-87.9365,4.436,0.1,1111122 
DISL,ioos:station:DISL:MHPA:1,2009-05-01T19:00:00Z,30.6671,-87.9365,4.558,0.1,1111122 
DISL,ioos:station:DISL:MHPA:1,2009-05-01T19:30:00Z,30.6671,-87.9365,4.665,0.1,1111122 
DISL,ioos:station:DISL:MHPA:1,2009-05-01T20:00:00Z,30.6671,-87.9365,4.673,0.1,1111122 
DISL,ioos:station:DISL:MHPA:1,2009-05-01T20:30:00Z,30.6671,-87.9365,4.764,0.1,1111122 
DISL,ioos:station:DISL:MHPA:1,2009-05-01T21:00:00Z,30.6671,-87.9365,4.798,0.1,1111122 
DISL,ioos:station:DISL:MHPA:1,2009-05-01T21:30:00Z,30.6671,-87.9365,4.805,0.1,1111122 
DISL,ioos:station:DISL:MHPA:1,2009-05-01T22:00:00Z,30.6671,-87.9365,4.786,0.1,1111122 
DISL,ioos:station:DISL:MHPA:1,2009-05-01T22:30:00Z,30.6671,-87.9365,4.758,0.1,1111122 
DISL,ioos:station:DISL:MHPA:1,2009-05-01T23:00:00Z,30.6671,-87.9365,4.755,0.1,1111122 
DISL,ioos:station:DISL:MHPA:1,2009-05-01T23:30:00Z,30.6671,-87.9365,4.726,0.1,1111122 
DISL,ioos:station:DISL:MHPA:1,2009-05-02T00:00:00Z,30.6671,-87.9365,4.677,0.1,1111122 
DISL,ioos:station:DISL:MHPA:1,2009-05-02T00:30:00Z,30.6671,-87.9365,4.613,0.1,1111122 
DISL,ioos:station:DISL:MHPA:1,2009-05-02T01:00:00Z,30.6671,-87.9365,4.566,0.1,1111122 
DISL,ioos:station:DISL:MHPA:1,2009-05-02T01:30:00Z,30.6671,-87.9365,4.509,0.1,1111122 
DISL,ioos:station:DISL:MHPA:1,2009-05-02T02:00:00Z,30.6671,-87.9365,4.419,0.1,1111122 
DISL,ioos:station:DISL:MHPA:1,2009-05-02T02:30:00Z,30.6671,-87.9365,4.362,0.1,1111122 
DISL,ioos:station:DISL:MHPA:1,2009-05-02T03:00:00Z,30.6671,-87.9365,4.232,0.1,1111122 
DISL,ioos:station:DISL:MHPA:1,2009-05-02T03:30:00Z,30.6671,-87.9365,4.105,0.1,1111122 
DISL,ioos:station:DISL:MHPA:1,2009-05-02T04:00:00Z,30.6671,-87.9365,3.967,0.1,1111122 
DISL,ioos:station:DISL:MHPA:1,2009-05-02T04:30:00Z,30.6671,-87.9365,3.873,0.1,1111122 
DISL,ioos:station:DISL:MHPA:1,2009-05-02T05:00:00Z,30.6671,-87.9365,3.78,0.1,1111122 
DISL,ioos:station:DISL:MHPA:1,2009-05-02T05:30:00Z,30.6671,-87.9365,3.692,0.1,1111122 
DISL,ioos:station:DISL:MHPA:1,2009-05-02T06:00:00Z,30.6671,-87.9365,3.606,0.1,1111122 
DISL,ioos:station:DISL:MHPA:1,2009-05-02T06:30:00Z,30.6671,-87.9365,3.474,0.1,1111122 
DISL,ioos:station:DISL:MHPA:1,2009-05-02T07:00:00Z,30.6671,-87.9365,3.377,0.1,1111122 
DISL,ioos:station:DISL:MHPA:1,2009-05-02T07:30:00Z,30.6671,-87.9365,3.337,0.1,1111122 
DISL,ioos:station:DISL:MHPA:1,2009-05-02T08:00:00Z,30.6671,-87.9365,3.294,0.1,1111122 
DISL,ioos:station:DISL:MHPA:1,2009-05-02T08:30:00Z,30.6671,-87.9365,3.238,0.1,1111122 
DISL,ioos:station:DISL:MHPA:1,2009-05-02T09:00:00Z,30.6671,-87.9365,3.209,0.1,1111122 
DISL,ioos:station:DISL:MHPA:1,2009-05-02T09:30:00Z,30.6671,-87.9365,3.18,0.1,1111122 
DISL,ioos:station:DISL:MHPA:1,2009-05-02T10:00:00Z,30.6671,-87.9365,3.121,0.1,1111122 
DISL,ioos:station:DISL:MHPA:1,2009-05-02T10:30:00Z,30.6671,-87.9365,3.09,0.1,1111122 
DISL,ioos:station:DISL:MHPA:1,2009-05-02T11:00:00Z,30.6671,-87.9365,3.177,0.1,1111122 
DISL,ioos:station:DISL:MHPA:1,2009-05-02T11:30:00Z,30.6671,-87.9365,3.25,0.1,1111122 
DISL,ioos:station:DISL:MHPA:1,2009-05-02T12:00:00Z,30.6671,-87.9365,3.32,0.1,1111122 
DISL,ioos:station:DISL:MHPA:1,2009-05-02T12:30:00Z,30.6671,-87.9365,3.4,0.1,1111122 
DISL,ioos:station:DISL:MHPA:1,2009-05-02T13:00:00Z,30.6671,-87.9365,3.461,0.1,1111122 
DISL,ioos:station:DISL:MHPA:1,2009-05-02T13:30:00Z,30.6671,-87.9365,3.588,0.1,1111122 
DISL,ioos:station:DISL:MHPA:1,2009-05-02T14:00:00Z,30.6671,-87.9365,3.695,0.1,1111122 
DISL,ioos:station:DISL:MHPA:1,2009-05-02T14:30:00Z,30.6671,-87.9365,3.792,0.1,1111122 
DISL,ioos:station:DISL:MHPA:1,2009-05-02T15:00:00Z,30.6671,-87.9365,3.905,0.1,1111122 
DISL,ioos:station:DISL:MHPA:1,2009-05-02T15:30:00Z,30.6671,-87.9365,4.005,0.1,1111122 
DISL,ioos:station:DISL:MHPA:1,2009-05-02T16:00:00Z,30.6671,-87.9365,4.088,0.1,1111122 
DISL,ioos:station:DISL:MHPA:1,2009-05-02T16:30:00Z,30.6671,-87.9365,4.119,0.1,1111122 
DISL,ioos:station:DISL:MHPA:1,2009-05-02T17:00:00Z,30.6671,-87.9365,4.231,0.1,1111122 
DISL,ioos:station:DISL:MHPA:1,2009-05-02T17:30:00Z,30.6671,-87.9365,4.28,0.1,1111122 
DISL,ioos:station:DISL:MHPA:1,2009-05-02T18:00:00Z,30.6671,-87.9365,4.356,0.1,1111122 
DISL,ioos:station:DISL:MHPA:1,2009-05-02T18:30:00Z,30.6671,-87.9365,4.409,0.1,1111122 
DISL,ioos:station:DISL:MHPA:1,2009-05-02T19:00:00Z,30.6671,-87.9365,4.444,0.1,1111122 
DISL,ioos:station:DISL:MHPA:1,2009-05-02T19:30:00Z,30.6671,-87.9365,4.52,0.1,1111122 
DISL,ioos:station:DISL:MHPA:1,2009-05-02T20:00:00Z,30.6671,-87.9365,4.567,0.1,1111122 
DISL,ioos:station:DISL:MHPA:1,2009-05-02T20:30:00Z,30.6671,-87.9365,4.604,0.1,1111122 
DISL,ioos:station:DISL:MHPA:1,2009-05-02T21:00:00Z,30.6671,-87.9365,4.652,0.1,1111122 
DISL,ioos:station:DISL:MHPA:1,2009-05-02T21:30:00Z,30.6671,-87.9365,4.69,0.1,1111122 
DISL,ioos:station:DISL:MHPA:1,2009-05-02T22:00:00Z,30.6671,-87.9365,4.724,0.1,1111122 
DISL,ioos:station:DISL:MHPA:1,2009-05-02T22:30:00Z,30.6671,-87.9365,4.753,0.09,1111122 
DISL,ioos:station:DISL:MHPA:1,2009-05-02T23:00:00Z,30.6671,-87.9365,4.785,0.1,1111122 
DISL,ioos:station:DISL:MHPA:1,2009-05-02T23:30:00Z,30.6671,-87.9365,4.781,0.09,1111122 
DISL,ioos:station:DISL:MHPA:1,2009-05-03T00:00:00Z,30.6671,-87.9365,4.761,0.1,1111122 
DISL,ioos:station:DISL:MHPA:1,2009-05-03T00:30:00Z,30.6671,-87.9365,4.764,0.1,1111122 
DISL,ioos:station:DISL:MHPA:1,2009-05-03T01:00:00Z,30.6671,-87.9365,4.747,0.1,1111122 
DISL,ioos:station:DISL:MHPA:1,2009-05-03T01:30:00Z,30.6671,-87.9365,4.727,0.1,1111122 
DISL,ioos:station:DISL:MHPA:1,2009-05-03T02:00:00Z,30.6671,-87.9365,4.718,0.1,1111122 
DISL,ioos:station:DISL:MHPA:1,2009-05-03T02:30:00Z,30.6671,-87.9365,4.667,0.1,1111122 
DISL,ioos:station:DISL:MHPA:1,2009-05-03T03:00:00Z,30.6671,-87.9365,4.637,0.1,1111122 
DISL,ioos:station:DISL:MHPA:1,2009-05-03T03:30:00Z,30.6671,-87.9365,4.541,0.1,1111122 
DISL,ioos:station:DISL:MHPA:1,2009-05-03T04:00:00Z,30.6671,-87.9365,4.479,0.1,1111122 
DISL,ioos:station:DISL:MHPA:1,2009-05-03T04:30:00Z,30.6671,-87.9365,4.432,0.1,1111122 
DISL,ioos:station:DISL:MHPA:1,2009-05-03T05:00:00Z,30.6671,-87.9365,4.396,0.1,1111122 
DISL,ioos:station:DISL:MHPA:1,2009-05-03T05:30:00Z,30.6671,-87.9365,4.351,0.1,1111122 
DISL,ioos:station:DISL:MHPA:1,2009-05-03T06:00:00Z,30.6671,-87.9365,4.303,0.1,1111122 
DISL,ioos:station:DISL:MHPA:1,2009-05-03T06:30:00Z,30.6671,-87.9365,4.271,0.1,1111122 
DISL,ioos:station:DISL:MHPA:1,2009-05-03T07:00:00Z,30.6671,-87.9365,4.212,0.1,1111122 
DISL,ioos:station:DISL:MHPA:1,2009-05-03T07:30:00Z,30.6671,-87.9365,4.092,0.1,1111122 
DISL,ioos:station:DISL:MHPA:1,2009-05-03T08:00:00Z,30.6671,-87.9365,4.046,0.1,1111122 
DISL,ioos:station:DISL:MHPA:1,2009-05-03T08:30:00Z,30.6671,-87.9365,3.994,0.1,1111122 
DISL,ioos:station:DISL:MHPA:1,2009-05-03T09:00:00Z,30.6671,-87.9365,3.936,0.1,1111122 
DISL,ioos:station:DISL:MHPA:1,2009-05-03T09:30:00Z,30.6671,-87.9365,3.905,0.1,1111122 
DISL,ioos:station:DISL:MHPA:1,2009-05-03T10:00:00Z,30.6671,-87.9365,3.944,0.1,1111122 
DISL,ioos:station:DISL:MHPA:1,2009-05-03T10:30:00Z,30.6671,-87.9365,3.989,0.1,1111122 
DISL,ioos:station:DISL:MHPA:1,2009-05-03T11:00:00Z,30.6671,-87.9365,4.017,0.1,1111122 
DISL,ioos:station:DISL:MHPA:1,2009-05-03T11:30:00Z,30.6671,-87.9365,4.046,0.1,1111122 
DISL,ioos:station:DISL:MHPA:1,2009-05-03T12:00:00Z,30.6671,-87.9365,4.117,0.1,1111122 
DISL,ioos:station:DISL:MHPA:1,2009-05-03T12:30:00Z,30.6671,-87.9365,4.171,0.1,1111122 
DISL,ioos:station:DISL:MHPA:1,2009-05-03T13:00:00Z,30.6671,-87.9365,4.221,0.1,1111122 
DISL,ioos:station:DISL:MHPA:1,2009-05-03T13:30:00Z,30.6671,-87.9365,4.306,0.1,1111122 
DISL,ioos:station:DISL:MHPA:1,2009-05-03T14:00:00Z,30.6671,-87.9365,4.324,0.1,1111122 
DISL,ioos:station:DISL:MHPA:1,2009-05-03T14:30:00Z,30.6671,-87.9365,4.391,0.1,1111122 
DISL,ioos:station:DISL:MHPA:1,2009-05-03T15:00:00Z,30.6671,-87.9365,4.452,0.1,1111122 
DISL,ioos:station:DISL:MHPA:1,2009-05-03T15:30:00Z,30.6671,-87.9365,4.521,0.1,1111122 
DISL,ioos:station:DISL:MHPA:1,2009-05-03T16:00:00Z,30.6671,-87.9365,4.608,0.1,1111122 
DISL,ioos:station:DISL:MHPA:1,2009-05-03T16:30:00Z,30.6671,-87.9365,4.743,0.1,1111122 
DISL,ioos:station:DISL:MHPA:1,2009-05-03T17:00:00Z,30.6671,-87.9365,4.837,0.1,1111122 
DISL,ioos:station:DISL:MHPA:1,2009-05-03T17:30:00Z,30.6671,-87.9365,4.884,0.1,1111122 
DISL,ioos:station:DISL:MHPA:1,2009-05-03T18:00:00Z,30.6671,-87.9365,4.781,0.1,1111122 
DISL,ioos:station:DISL:MHPA:1,2009-05-03T18:30:00Z,30.6671,-87.9365,4.693,0.1,1111122 
DISL,ioos:station:DISL:MHPA:1,2009-05-03T19:00:00Z,30.6671,-87.9365,4.681,0.1,1111122 
DISL,ioos:station:DISL:MHPA:1,2009-05-03T19:30:00Z,30.6671,-87.9365,4.627,0.1,1111122 
DISL,ioos:station:DISL:MHPA:1,2009-05-03T20:00:00Z,30.6671,-87.9365,4.557,0.1,1111122 
DISL,ioos:station:DISL:MHPA:1,2009-05-03T20:30:00Z,30.6671,-87.9365,4.516,0.1,1111122 
DISL,ioos:station:DISL:MHPA:1,2009-05-03T21:00:00Z,30.6671,-87.9365,4.471,0.1,1111122 
DISL,ioos:station:DISL:MHPA:1,2009-05-03T21:30:00Z,30.6671,-87.9365,4.407,0.1,1111122 
DISL,ioos:station:DISL:MHPA:1,2009-05-03T22:00:00Z,30.6671,-87.9365,4.215,0.1,1111122 
DISL,ioos:station:DISL:MHPA:1,2009-05-03T22:30:00Z,30.6671,-87.9365,4.116,0.1,1111122 
DISL,ioos:station:DISL:MHPA:1,2009-05-03T23:00:00Z,30.6671,-87.9365,3.915,0.11,1111122 
DISL,ioos:station:DISL:MHPA:1,2009-05-03T23:30:00Z,30.6671,-87.9365,3.829,0.11,1111122 
DISL,ioos:station:DISL:MHPA:1,2009-05-04T00:00:00Z,30.6671,-87.9365,3.787,0.11,1111122 
DISL,ioos:station:DISL:MHPA:1,2009-05-04T00:30:00Z,30.6671,-87.9365,3.664,0.11,1111122 
DISL,ioos:station:DISL:MHPA:1,2009-05-04T01:00:00Z,30.6671,-87.9365,3.887,0.1,1111122 
DISL,ioos:station:DISL:MHPA:1,2009-05-04T01:30:00Z,30.6671,-87.9365,4.049,0.1,1111122 
DISL,ioos:station:DISL:MHPA:1,2009-05-04T02:00:00Z,30.6671,-87.9365,3.981,0.11,1111122 
DISL,ioos:station:DISL:MHPA:1,2009-05-04T02:30:00Z,30.6671,-87.9365,4.087,0.1,1111122 
DISL,ioos:station:DISL:MHPA:1,2009-05-04T03:00:00Z,30.6671,-87.9365,3.909,0.11,1111122 
DISL,ioos:station:DISL:MHPA:1,2009-05-04T03:30:00Z,30.6671,-87.9365,3.958,0.1,1111122 
DISL,ioos:station:DISL:MHPA:1,2009-05-04T04:00:00Z,30.6671,-87.9365,3.904,0.11,1111122 
DISL,ioos:station:DISL:MHPA:1,2009-05-04T04:30:00Z,30.6671,-87.9365,4.283,0.1,1111122 
DISL,ioos:station:DISL:MHPA:1,2009-05-04T05:00:00Z,30.6671,-87.9365,4.419,0.1,1111122 
DISL,ioos:station:DISL:MHPA:1,2009-05-04T05:30:00Z,30.6671,-87.9365,4.463,0.1,1111122 
DISL,ioos:station:DISL:MHPA:1,2009-05-04T06:00:00Z,30.6671,-87.9365,4.493,0.1,1111122 
DISL,ioos:station:DISL:MHPA:1,2009-05-04T06:30:00Z,30.6671,-87.9365,4.551,0.1,1111122 
DISL,ioos:station:DISL:MHPA:1,2009-05-04T07:00:00Z,30.6671,-87.9365,4.668,0.1,1111122 
DISL,ioos:station:DISL:MHPA:1,2009-05-04T07:30:00Z,30.6671,-87.9365,4.757,0.1,1111122 
DISL,ioos:station:DISL:MHPA:1,2009-05-04T08:00:00Z,30.6671,-87.9365,4.842,0.1,1111122 
DISL,ioos:station:DISL:MHPA:1,2009-05-04T08:30:00Z,30.6671,-87.9365,4.851,0.1,1111122 
DISL,ioos:station:DISL:MHPA:1,2009-05-04T09:00:00Z,30.6671,-87.9365,4.923,0.1,1111122 
DISL,ioos:station:DISL:MHPA:1,2009-05-04T09:30:00Z,30.6671,-87.9365,4.98,0.1,1111122 
DISL,ioos:station:DISL:MHPA:1,2009-05-04T10:00:00Z,30.6671,-87.9365,4.859,0.1,1111122 
DISL,ioos:station:DISL:MHPA:1,2009-05-04T10:30:00Z,30.6671,-87.9365,4.925,0.1,1111122 
DISL,ioos:station:DISL:MHPA:1,2009-05-04T11:00:00Z,30.6671,-87.9365,4.941,0.1,1111122 
DISL,ioos:station:DISL:MHPA:1,2009-05-04T11:30:00Z,30.6671,-87.9365,4.983,0.1,1111122 
DISL,ioos:station:DISL:MHPA:1,2009-05-04T12:00:00Z,30.6671,-87.9365,4.947,0.1,1111122 
DISL,ioos:station:DISL:MHPA:1,2009-05-04T12:30:00Z,30.6671,-87.9365,4.893,0.1,1111122 
DISL,ioos:station:DISL:MHPA:1,2009-05-04T13:00:00Z,30.6671,-87.9365,4.989,0.1,1111122 
DISL,ioos:station:DISL:MHPA:1,2009-05-04T13:30:00Z,30.6671,-87.9365,5.036,0.1,1111122 
DISL,ioos:station:DISL:MHPA:1,2009-05-04T14:00:00Z,30.6671,-87.9365,4.918,0.1,1111122 
DISL,ioos:station:DISL:MHPA:1,2009-05-04T14:30:00Z,30.6671,-87.9365,4.966,0.1,1111122 
DISL,ioos:station:DISL:MHPA:1,2009-05-04T15:00:00Z,30.6671,-87.9365,4.837,0.1,1111122 
DISL,ioos:station:DISL:MHPA:1,2009-05-04T15:30:00Z,30.6671,-87.9365,4.944,0.1,1111122 
DISL,ioos:station:DISL:MHPA:1,2009-05-04T16:00:00Z,30.6671,-87.9365,4.955,0.1,1111122 
DISL,ioos:station:DISL:MHPA:1,2009-05-04T16:30:00Z,30.6671,-87.9365,5.058,0.1,1111122 
DISL,ioos:station:DISL:MHPA:1,2009-05-04T17:00:00Z,30.6671,-87.9365,4.905,0.1,1111122 
DISL,ioos:station:DISL:MHPA:1,2009-05-04T17:30:00Z,30.6671,-87.9365,4.485,0.1,1111122 
DISL,ioos:station:DISL:MHPA:1,2009-05-04T18:00:00Z,30.6671,-87.9365,4.61,0.1,1111122 
DISL,ioos:station:DISL:MHPA:1,2009-05-04T18:30:00Z,30.6671,-87.9365,4.262,0.1,1111122 
DISL,ioos:station:DISL:MHPA:1,2009-05-04T19:00:00Z,30.6671,-87.9365,3.918,0.1,1111122 
DISL,ioos:station:DISL:MHPA:1,2009-05-04T19:30:00Z,30.6671,-87.9365,3.913,0.1,1111122 
DISL,ioos:station:DISL:MHPA:1,2009-05-04T20:00:00Z,30.6671,-87.9365,3.931,0.1,1111122 
DISL,ioos:station:DISL:MHPA:1,2009-05-04T20:30:00Z,30.6671,-87.9365,4.069,0.1,1111122 
DISL,ioos:station:DISL:MHPA:1,2009-05-04T21:00:00Z,30.6671,-87.9365,4.059,0.1,1111122 
DISL,ioos:station:DISL:MHPA:1,2009-05-04T21:30:00Z,30.6671,-87.9365,4.235,0.1,1111122 
DISL,ioos:station:DISL:MHPA:1,2009-05-04T22:00:00Z,30.6671,-87.9365,4.149,0.1,1111122 
DISL,ioos:station:DISL:MHPA:1,2009-05-04T22:30:00Z,30.6671,-87.9365,4.081,0.1,1111122 
DISL,ioos:station:DISL:MHPA:1,2009-05-04T23:00:00Z,30.6671,-87.9365,4.105,0.1,1111122 
DISL,ioos:station:DISL:MHPA:1,2009-05-04T23:30:00Z,30.6671,-87.9365,3.957,0.1,1111122 
DISL,ioos:station:DISL:MHPA:1,2009-05-05T00:00:00Z,30.6671,-87.9365,3.778,0.1,1111122 
DISL,ioos:station:DISL:MHPA:1,2009-05-05T00:30:00Z,30.6671,-87.9365,3.811,0.1,1111122 
DISL,ioos:station:DISL:MHPA:1,2009-05-05T01:00:00Z,30.6671,-87.9365,3.844,0.1,1111122 
DISL,ioos:station:DISL:MHPA:1,2009-05-05T01:30:00Z,30.6671,-87.9365,3.824,0.11,1111122 
DISL,ioos:station:DISL:MHPA:1,2009-05-05T02:00:00Z,30.6671,-87.9365,3.788,0.11,1111122 
DISL,ioos:station:DISL:MHPA:1,2009-05-05T02:30:00Z,30.6671,-87.9365,3.843,0.11,1111122 
DISL,ioos:station:DISL:MHPA:1,2009-05-05T03:00:00Z,30.6671,-87.9365,3.82,0.1,1111122 
DISL,ioos:station:DISL:MHPA:1,2009-05-05T03:30:00Z,30.6671,-87.9365,3.894,0.1,1111122 
DISL,ioos:station:DISL:MHPA:1,2009-05-05T04:00:00Z,30.6671,-87.9365,3.97,0.1,1111122 
DISL,ioos:station:DISL:MHPA:1,2009-05-05T04:30:00Z,30.6671,-87.9365,4.002,0.1,1111122 
DISL,ioos:station:DISL:MHPA:1,2009-05-05T05:00:00Z,30.6671,-87.9365,4.107,0.1,1111122 
DISL,ioos:station:DISL:MHPA:1,2009-05-05T05:30:00Z,30.6671,-87.9365,4.098,0.1,1111122 
DISL,ioos:station:DISL:MHPA:1,2009-05-05T06:00:00Z,30.6671,-87.9365,4.095,0.1,1111122 
DISL,ioos:station:DISL:MHPA:1,2009-05-05T06:30:00Z,30.6671,-87.9365,4.137,0.1,1111122 
DISL,ioos:station:DISL:MHPA:1,2009-05-05T07:00:00Z,30.6671,-87.9365,4.159,0.1,1111122 
DISL,ioos:station:DISL:MHPA:1,2009-05-05T07:30:00Z,30.6671,-87.9365,4.168,0.1,1111122 
DISL,ioos:station:DISL:MHPA:1,2009-05-05T08:00:00Z,30.6671,-87.9365,4.102,0.1,1111122 
DISL,ioos:station:DISL:MHPA:1,2009-05-05T08:30:00Z,30.6671,-87.9365,4.182,0.1,1111122 
DISL,ioos:station:DISL:MHPA:1,2009-05-05T09:00:00Z,30.6671,-87.9365,4.108,0.1,1111122 
DISL,ioos:station:DISL:MHPA:1,2009-05-05T09:30:00Z,30.6671,-87.9365,4.066,0.1,1111122 
DISL,ioos:station:DISL:MHPA:1,2009-05-05T10:00:00Z,30.6671,-87.9365,4.144,0.1,1111122 
DISL,ioos:station:DISL:MHPA:1,2009-05-05T10:30:00Z,30.6671,-87.9365,4.088,0.1,1111122 
DISL,ioos:station:DISL:MHPA:1,2009-05-05T11:00:00Z,30.6671,-87.9365,4.078,0.1,1111122 
DISL,ioos:station:DISL:MHPA:1,2009-05-05T11:30:00Z,30.6671,-87.9365,4.122,0.1,1111122 
DISL,ioos:station:DISL:MHPA:1,2009-05-05T12:00:00Z,30.6671,-87.9365,4.14,0.1,1111122 
DISL,ioos:station:DISL:MHPA:1,2009-05-05T12:30:00Z,30.6671,-87.9365,4.167,0.1,1111122 
DISL,ioos:station:DISL:MHPA:1,2009-05-05T13:00:00Z,30.6671,-87.9365,4.22,0.1,1111122 
DISL,ioos:station:DISL:MHPA:1,2009-05-05T13:30:00Z,30.6671,-87.9365,4.242,0.1,1111122 
DISL,ioos:station:DISL:MHPA:1,2009-05-05T14:00:00Z,30.6671,-87.9365,4.2,0.1,1111122 
DISL,ioos:station:DISL:MHPA:1,2009-05-05T14:30:00Z,30.6671,-87.9365,4.235,0.1,1111122 
DISL,ioos:station:DISL:MHPA:1,2009-05-05T15:00:00Z,30.6671,-87.9365,4.223,0.1,1111122 
DISL,ioos:station:DISL:MHPA:1,2009-05-05T15:30:00Z,30.6671,-87.9365,4.196,0.1,1111122 
DISL,ioos:station:DISL:MHPA:1,2009-05-05T16:00:00Z,30.6671,-87.9365,4.23,0.1,1111122 
DISL,ioos:station:DISL:MHPA:1,2009-05-05T16:30:00Z,30.6671,-87.9365,4.172,0.1,1111122 
DISL,ioos:station:DISL:MHPA:1,2009-05-05T17:00:00Z,30.6671,-87.9365,4.243,0.1,1111122 
DISL,ioos:station:DISL:MHPA:1,2009-05-05T17:30:00Z,30.6671,-87.9365,4.223,0.1,1111122 
DISL,ioos:station:DISL:MHPA:1,2009-05-05T18:00:00Z,30.6671,-87.9365,4.224,0.1,1111122 
DISL,ioos:station:DISL:MHPA:1,2009-05-05T18:30:00Z,30.6671,-87.9365,4.257,0.1,1111122 
DISL,ioos:station:DISL:MHPA:1,2009-05-05T19:00:00Z,30.6671,-87.9365,4.257,0.1,1111122 
DISL,ioos:station:DISL:MHPA:1,2009-05-05T19:30:00Z,30.6671,-87.9365,4.203,0.09,1111122 
DISL,ioos:station:DISL:MHPA:1,2009-05-05T20:00:00Z,30.6671,-87.9365,4.128,0.09,1111122 
DISL,ioos:station:DISL:MHPA:1,2009-05-05T20:30:00Z,30.6671,-87.9365,4.0,0.09,1111122 
DISL,ioos:station:DISL:MHPA:1,2009-05-05T21:00:00Z,30.6671,-87.9365,3.871,0.09,1111122 
DISL,ioos:station:DISL:MHPA:1,2009-05-05T21:30:00Z,30.6671,-87.9365,3.829,0.09,1111122 
DISL,ioos:station:DISL:MHPA:1,2009-05-05T22:00:00Z,30.6671,-87.9365,3.813,0.08,1111122 
DISL,ioos:station:DISL:MHPA:1,2009-05-05T22:30:00Z,30.6671,-87.9365,3.728,0.08,1111122 
DISL,ioos:station:DISL:MHPA:1,2009-05-05T23:00:00Z,30.6671,-87.9365,3.677,0.08,1111122 
DISL,ioos:station:DISL:MHPA:1,2009-05-05T23:30:00Z,30.6671,-87.9365,3.64,0.09,1111122 
DISL,ioos:station:DISL:MHPA:1,2009-05-06T00:00:00Z,30.6671,-87.9365,3.571,0.09,1111122 
DISL,ioos:station:DISL:MHPA:1,2009-05-06T00:30:00Z,30.6671,-87.9365,3.55,0.09,1111122 
DISL,ioos:station:DISL:MHPA:1,2009-05-06T01:00:00Z,30.6671,-87.9365,3.528,0.09,1111122 
DISL,ioos:station:DISL:MHPA:1,2009-05-06T01:30:00Z,30.6671,-87.9365,3.484,0.08,1111122 
DISL,ioos:station:DISL:MHPA:1,2009-05-06T02:00:00Z,30.6671,-87.9365,3.496,0.08,1111122 
DISL,ioos:station:DISL:MHPA:1,2009-05-06T02:30:00Z,30.6671,-87.9365,3.501,0.09,1111122 
DISL,ioos:station:DISL:MHPA:1,2009-05-06T03:00:00Z,30.6671,-87.9365,3.499,0.09,1111122 
DISL,ioos:station:DISL:MHPA:1,2009-05-06T03:30:00Z,30.6671,-87.9365,3.521,0.09,1111122 
DISL,ioos:station:DISL:MHPA:1,2009-05-06T04:00:00Z,30.6671,-87.9365,3.552,0.09,1111122 
DISL,ioos:station:DISL:MHPA:1,2009-05-06T04:30:00Z,30.6671,-87.9365,3.586,0.1,1111122 
DISL,ioos:station:DISL:MHPA:1,2009-05-06T05:00:00Z,30.6671,-87.9365,3.729,0.09,1111122 
DISL,ioos:station:DISL:MHPA:1,2009-05-06T05:30:00Z,30.6671,-87.9365,3.849,0.09,1111122 
DISL,ioos:station:DISL:MHPA:1,2009-05-06T06:00:00Z,30.6671,-87.9365,3.906,0.09,1111122 
DISL,ioos:station:DISL:MHPA:1,2009-05-06T06:30:00Z,30.6671,-87.9365,4.011,0.09,1111122 
DISL,ioos:station:DISL:MHPA:1,2009-05-06T07:00:00Z,30.6671,-87.9365,4.144,0.09,1111122 
DISL,ioos:station:DISL:MHPA:1,2009-05-06T07:30:00Z,30.6671,-87.9365,4.22,0.09,1111122 
DISL,ioos:station:DISL:MHPA:1,2009-05-06T08:00:00Z,30.6671,-87.9365,4.313,0.09,1111122 
DISL,ioos:station:DISL:MHPA:1,2009-05-06T08:30:00Z,30.6671,-87.9365,4.415,0.09,1111122 
DISL,ioos:station:DISL:MHPA:1,2009-05-06T09:00:00Z,30.6671,-87.9365,4.511,0.09,1111122 
DISL,ioos:station:DISL:MHPA:1,2009-05-06T09:30:00Z,30.6671,-87.9365,4.604,0.09,1111122 
DISL,ioos:station:DISL:MHPA:1,2009-05-06T10:00:00Z,30.6671,-87.9365,4.658,0.09,1111122 
DISL,ioos:station:DISL:MHPA:1,2009-05-06T10:30:00Z,30.6671,-87.9365,4.742,0.09,1111122 
DISL,ioos:station:DISL:MHPA:1,2009-05-06T11:00:00Z,30.6671,-87.9365,4.828,0.08,1111122 
DISL,ioos:station:DISL:MHPA:1,2009-05-06T11:30:00Z,30.6671,-87.9365,4.888,0.09,1111122 
DISL,ioos:station:DISL:MHPA:1,2009-05-06T12:00:00Z,30.6671,-87.9365,4.914,0.09,1111122 
DISL,ioos:station:DISL:MHPA:1,2009-05-06T12:30:00Z,30.6671,-87.9365,4.875,0.09,1111122 
DISL,ioos:station:DISL:MHPA:1,2009-05-06T13:00:00Z,30.6671,-87.9365,4.894,0.09,1111122 
DISL,ioos:station:DISL:MHPA:1,2009-05-06T13:30:00Z,30.6671,-87.9365,4.878,0.09,1111122 
DISL,ioos:station:DISL:MHPA:1,2009-05-06T14:00:00Z,30.6671,-87.9365,4.909,0.09,1111122 
DISL,ioos:station:DISL:MHPA:1,2009-05-06T14:30:00Z,30.6671,-87.9365,4.895,0.09,1111122 
DISL,ioos:station:DISL:MHPA:1,2009-05-06T15:00:00Z,30.6671,-87.9365,4.863,0.09,1111122 
DISL,ioos:station:DISL:MHPA:1,2009-05-06T15:30:00Z,30.6671,-87.9365,4.826,0.08,1111122 
DISL,ioos:station:DISL:MHPA:1,2009-05-06T16:00:00Z,30.6671,-87.9365,4.772,0.08,1111122 
DISL,ioos:station:DISL:MHPA:1,2009-05-06T16:30:00Z,30.6671,-87.9365,4.691,0.08,1111122 